GFSGL_sfc_thetae_075.txt.gz
Theta_e
285 285 285 284 284 283 282 280 279 279 278 278 278 277 276 275 275 274 274 274 274 273 274 274 274 275 274 274 274 274 273 273 270 272 274 274 274 274 275 276 277 276 277
285 285 284 283 282 280 279 278 278 277 277 277 277 276 275 275 274 273 273 273 273 273 273 273 273 274 272 273 272 271 272 272 271 269 271 272 272 273 274 273 275 277 276
284 283 282 281 279 278 278 278 278 277 276 276 275 274 274 274 273 273 273 273 273 273 273 273 272 272 272 272 271 271 272 273 272 271 270 272 273 273 273 273 274 274 276
283 282 280 279 278 277 277 277 277 276 275 274 274 274 274 273 273 274 274 273 273 273 273 273 272 272 272 272 272 272 273 272 272 271 271 271 272 273 273 271 272 274 274
283 281 280 278 278 277 277 277 276 276 275 274 274 273 273 273 274 274 274 273 272 272 272 273 273 273 274 275 274 273 273 271 271 271 270 270 270 271 271 272 272 272 273
282 281 280 279 278 277 277 276 275 275 274 274 273 272 272 272 275 276 275 273 272 272 271 271 272 272 273 275 276 277 276 273 272 271 271 270 272 272 273 272 271 270 269
282 280 279 278 277 276 276 275 274 273 273 272 271 271 270 271 274 275 275 273 272 271 271 271 272 273 272 272 274 277 277 278 278 276 273 272 272 273 273 272 272 272 271
280 279 278 277 276 275 274 274 273 272 272 271 270 270 270 270 274 274 274 272 271 271 271 271 271 272 273 274 275 275 274 274 274 275 274 274 275 276 275 275 274 273 274
279 278 277 277 275 274 273 272 272 271 270 269 270 269 268 267 272 274 274 271 271 271 272 272 272 272 275 278 275 271 271 271 275 277 277 276 276 276 275 273 270 269 268
279 278 277 277 275 273 273 272 271 271 270 270 270 267 266 263 271 273 274 271 267 270 271 273 275 274 277 278 274 270 266 269 272 269 268 270 271 271 273 272 270 267 267
280 278 276 276 275 274 272 271 269 267 268 263 265 264 264 266 266 273 275 273 270 269 271 272 273 276 277 277 277 268 270 274 268 266 266 267 268 269 269 271 271 270 267
278 276 275 274 273 271 269 266 265 263 261 259 258 261 265 266 270 272 275 276 275 266 268 272 272 276 276 275 273 274 275 271 264 264 264 265 266 267 269 270 270 271 271
276 275 273 270 269 267 265 264 262 261 262 262 263 262 263 266 266 274 275 276 275 272 271 273 277 275 274 270 271 272 268 263 263 263 263 265 267 268 269 269 270 271 271
274 271 267 267 265 264 265 265 263 262 262 263 263 263 263 265 266 266 266 266 271 272 273 268 270 271 270 269 265 267 265 265 264 264 265 266 267 267 266 268 268 268 267
271 268 267 267 266 264 265 264 264 264 265 261 262 261 260 260 264 269 268 266 266 269 270 260 256 258 260 261 260 263 263 263 263 264 264 264 265 265 265 268 268 267 265
268 267 267 266 264 264 264 263 271 271 272 274 273 265 262 270 273 275 276 277 276 277 266 254 255 257 259 260 259 261 262 262 263 263 263 263 264 264 265 267 267 265 264
270 268 266 266 264 264 264 264 263 265 276 275 276 276 276 274 276 276 276 276 276 275 256 252 254 256 258 260 260 261 260 262 262 262 262 262 263 263 265 264 265 265 264
264 266 266 266 265 265 265 264 263 261 261 261 270 273 274 275 275 275 276 275 263 260 255 252 253 254 256 257 258 259 260 260 260 261 261 261 262 262 263 263 264 264 264
265 265 266 265 265 264 262 260 258 255 254 253 256 265 267 270 271 273 274 263 259 256 258 255 255 254 255 255 256 256 256 258 259 259 259 260 261 262 263 263 263 264 264
263 264 264 262 260 259 259 259 256 254 253 254 257 260 260 256 253 257 258 258 258 259 258 256 256 256 257 254 253 253 255 256 256 257 259 260 261 261 262 262 262 262 263
262 260 260 260 260 258 258 257 258 259 258 258 258 259 266 259 258 255 255 256 259 260 259 258 258 256 257 255 252 251 253 256 255 254 257 259 260 260 261 263 262 262 262
260 260 259 259 258 258 258 259 258 257 257 256 253 252 266 255 252 251 253 256 257 259 260 259 258 257 258 255 253 250 252 254 254 251 255 257 258 259 261 262 262 261 261
260 258 257 258 258 257 256 254 253 253 251 249 249 249 248 250 252 250 253 257 259 259 259 259 257 257 258 255 253 252 253 254 254 249 254 255 256 258 260 261 261 260 259
259 259 258 257 256 254 254 252 250 250 249 249 247 248 249 249 250 251 253 256 258 258 258 257 256 255 256 256 255 250 251 253 253 254 251 253 255 257 259 262 261 260 258
257 257 257 256 254 253 251 249 250 247 247 249 249 248 248 249 250 251 252 253 254 256 256 255 255 254 254 252 253 251 251 254 253 254 253 253 255 257 258 262 260 259 257
257 256 254 253 252 251 250 250 248 249 248 249 250 249 248 249 250 250 251 252 253 253 254 255 254 252 252 252 251 252 255 258 257 257 256 257 258 260 261 261 259 259 258

GFSGL_sfc_thetae_078.txt.gz
Theta_e
286 286 284 284 283 283 281 280 279 278 278 277 277 277 276 275 275 274 274 274 274 273 273 273 274 274 273 273 273 273 272 271 268 271 273 273 273 273 274 275 276 275 276
285 284 283 283 281 280 279 278 278 277 278 277 277 276 276 275 274 274 274 273 273 273 273 272 272 274 272 272 272 271 271 272 270 269 271 272 272 273 274 273 275 276 275
284 283 282 281 280 279 278 277 278 277 277 276 276 276 275 275 274 274 273 273 273 272 272 272 272 272 272 272 271 270 271 273 271 270 270 272 273 274 273 274 274 274 276
283 282 280 279 279 278 278 277 277 277 276 276 276 275 275 274 274 275 274 273 272 272 273 273 272 272 271 271 272 272 272 271 272 271 271 271 272 274 274 272 272 274 274
282 281 280 279 278 278 278 277 277 276 276 276 275 274 274 274 275 274 274 273 272 271 272 273 272 272 274 274 273 272 272 271 271 272 271 272 272 272 271 273 272 273 274
282 281 280 279 278 278 277 277 276 276 275 275 274 273 273 273 279 278 275 273 273 272 271 271 271 272 272 275 276 277 278 275 272 272 271 270 270 271 272 272 273 271 269
282 280 279 279 278 277 277 276 275 275 274 273 272 272 272 272 278 277 276 273 272 271 271 271 272 273 272 272 274 277 277 277 277 274 269 270 271 272 272 270 270 270 270
282 280 279 278 277 276 275 275 275 274 273 272 272 272 271 271 277 277 276 273 271 271 271 271 271 271 272 273 274 274 273 273 273 273 273 273 273 273 273 272 271 270 270
281 280 279 278 277 275 275 274 274 273 272 272 272 271 271 270 276 276 275 272 271 271 272 272 272 272 275 278 275 268 269 270 274 276 276 276 276 276 274 271 266 265 264
281 280 279 278 276 275 275 275 274 273 272 272 272 271 270 268 274 275 276 271 266 270 271 272 275 274 277 278 273 264 263 269 271 268 268 269 271 270 273 270 269 265 265
282 279 278 278 277 276 276 274 273 272 271 270 269 267 267 267 267 275 276 273 270 269 270 271 273 276 277 278 278 267 267 273 266 265 265 266 267 268 269 270 270 269 266
280 279 278 278 277 276 275 273 271 270 267 264 263 262 265 266 269 273 276 277 276 270 268 271 272 276 277 277 275 274 275 271 260 260 262 263 265 266 268 269 269 270 270
280 280 278 277 276 275 273 269 266 265 265 263 264 263 263 266 265 274 275 277 278 274 271 273 276 278 276 272 272 273 268 261 260 257 261 264 266 267 268 268 269 269 270
278 277 276 275 273 271 272 269 267 264 264 264 264 264 263 264 266 266 267 266 271 272 272 269 271 275 274 270 264 266 264 264 263 263 263 265 265 265 265 266 265 267 266
276 273 272 272 270 269 268 267 267 267 267 265 264 264 262 262 266 269 267 261 262 267 268 259 261 260 262 260 259 261 262 262 261 262 262 262 263 264 264 265 266 265 263
272 270 271 271 269 268 266 262 272 270 273 274 273 266 261 269 272 274 275 276 277 278 269 258 260 262 261 260 258 260 262 261 261 261 261 261 262 262 262 263 265 263 262
273 271 270 269 267 266 265 265 265 266 275 275 276 276 276 271 275 276 277 278 278 278 268 260 261 261 260 261 261 260 260 261 260 260 260 260 261 261 261 262 263 263 262
270 270 269 268 267 266 266 265 265 265 264 262 271 276 277 278 278 278 277 276 270 263 258 260 261 260 259 258 259 259 260 259 259 259 259 258 258 259 260 260 262 261 262
266 266 267 266 265 265 263 261 260 259 259 255 256 265 267 271 272 273 273 263 259 259 260 258 258 258 258 258 258 258 257 257 258 256 256 256 257 258 259 260 261 262 262
265 265 265 264 261 261 261 261 260 259 258 258 258 259 258 258 256 257 257 256 254 254 254 255 257 257 258 258 257 257 255 254 255 254 254 254 256 257 259 259 259 260 261
264 262 263 260 262 262 261 261 261 260 259 258 259 259 265 255 254 252 250 249 251 252 253 254 254 256 256 258 257 256 254 255 256 254 252 253 254 255 257 258 259 260 261
262 261 260 261 259 260 261 260 259 258 257 257 255 256 267 251 248 248 247 248 250 251 253 257 257 255 257 257 257 256 254 254 254 253 252 252 252 254 255 256 258 260 261
259 259 258 258 260 260 259 258 258 258 258 257 256 252 248 248 247 246 246 247 248 250 252 252 255 255 257 257 257 256 255 255 255 252 250 251 250 252 253 254 257 259 260
258 259 260 260 259 259 259 257 258 258 257 254 252 249 249 247 247 248 249 248 248 251 251 251 251 252 254 255 256 255 254 253 253 252 250 250 251 252 252 254 256 259 260
256 257 259 260 259 259 258 257 257 255 253 254 251 249 249 248 248 249 248 247 249 249 250 249 249 251 251 252 254 253 253 256 254 253 248 245 250 250 252 255 256 259 259
259 260 259 259 258 257 257 256 255 254 253 253 253 252 250 250 250 248 247 248 249 250 250 249 250 250 250 251 251 252 256 258 256 255 252 251 252 253 254 256 257 259 259

GFSGL_sfc_thetae_081.txt.gz
Theta_e
287 286 286 285 285 284 282 280 279 279 278 277 277 277 276 276 275 275 275 275 274 274 274 274 273 274 273 272 273 273 271 271 268 270 272 273 273 273 274 275 276 275 276
287 286 285 284 284 282 281 278 278 277 277 277 277 276 276 275 275 276 275 274 274 273 273 272 272 274 272 272 271 271 271 271 270 269 271 272 272 274 274 274 275 277 276
286 285 283 283 282 280 278 278 278 277 277 277 276 276 275 276 275 275 275 274 273 273 272 272 272 272 271 271 271 270 271 272 271 270 270 273 273 274 274 275 275 275 276
285 284 283 282 281 279 278 277 277 277 276 276 276 276 276 275 275 275 274 273 273 273 273 272 272 271 271 271 271 272 272 272 271 271 271 272 273 274 273 272 272 274 274
284 283 282 281 280 278 277 277 277 276 276 276 275 275 275 275 275 275 275 274 273 272 272 273 272 272 274 274 274 273 272 271 272 272 271 271 270 270 270 272 270 271 272
283 282 281 280 278 278 278 277 277 276 275 275 275 274 274 274 279 279 276 274 273 272 271 271 272 272 272 275 276 278 278 275 263 266 269 269 269 271 272 270 270 269 267
283 282 280 279 278 278 277 276 276 275 275 275 274 273 273 273 281 280 278 274 273 272 271 272 272 273 272 272 274 277 277 278 278 274 269 270 270 272 271 270 270 269 268
281 280 279 279 278 278 276 276 275 275 274 274 273 273 273 273 281 280 279 274 273 272 272 271 271 271 272 272 273 273 274 273 273 273 273 273 274 273 272 272 270 268 268
281 280 279 279 278 276 276 275 275 275 274 273 274 273 272 272 280 280 278 273 272 271 272 272 271 271 274 276 275 272 269 270 274 276 277 277 276 275 274 271 265 265 264
281 281 280 280 278 276 276 275 275 276 275 273 274 273 272 272 278 280 278 273 269 270 271 272 275 273 275 278 275 269 262 269 271 268 268 269 270 269 273 270 268 264 264
283 281 280 279 278 277 276 276 276 275 274 272 272 271 271 271 270 278 279 273 270 269 269 270 272 275 277 278 279 269 268 274 266 263 264 265 266 267 268 269 269 268 265
282 280 279 279 278 277 276 276 276 274 273 271 270 269 269 269 270 275 278 279 275 267 268 271 271 276 277 278 278 277 277 273 259 259 260 262 264 266 267 268 268 269 269
280 279 279 280 279 278 276 275 274 273 272 270 269 268 267 267 266 275 276 278 279 275 272 273 276 277 278 275 274 275 270 259 257 255 260 263 265 266 267 266 267 268 268
280 280 280 279 277 277 277 275 275 272 271 270 268 267 267 266 266 266 267 267 273 273 271 268 272 275 276 274 266 268 265 264 262 262 262 264 264 263 263 265 264 264 264
280 279 279 278 277 276 275 274 274 273 274 269 269 268 265 264 266 269 267 262 262 265 266 257 259 261 266 266 263 263 263 262 261 262 261 261 262 262 262 263 263 263 262
275 273 275 275 273 272 273 268 277 276 275 277 274 268 262 270 273 275 276 276 275 275 271 267 265 266 266 265 263 262 261 262 262 262 259 260 261 260 261 261 262 261 261
273 272 272 271 271 270 270 270 270 271 276 277 277 276 274 269 275 276 276 277 277 278 275 269 263 265 265 264 263 262 260 261 261 261 260 258 259 259 259 259 260 261 260
269 271 272 272 271 271 271 270 271 270 268 269 275 276 278 278 277 277 278 278 271 265 261 261 262 262 262 261 260 260 259 260 260 260 260 259 257 257 257 257 258 258 259
267 268 269 268 268 268 267 263 264 262 266 259 257 267 267 279 279 278 278 262 258 256 257 259 257 257 257 256 256 255 258 259 259 258 258 257 257 254 255 256 258 258 258
263 265 266 266 263 262 262 263 262 262 261 261 262 267 257 259 256 257 257 256 253 252 250 250 250 249 251 253 252 253 255 255 257 256 257 257 256 254 255 255 256 256 257
263 261 264 261 263 263 263 263 263 262 262 262 262 261 265 259 259 258 259 257 251 248 248 248 248 249 249 249 249 251 254 256 256 256 256 255 254 252 253 254 254 255 256
262 261 260 262 259 260 261 261 262 262 262 261 256 259 272 259 260 259 257 252 251 252 249 248 249 249 250 250 251 252 253 254 255 255 255 254 253 252 251 252 252 254 255
258 257 256 254 257 257 258 258 260 261 260 260 260 260 259 259 257 254 252 250 251 247 247 245 249 250 248 250 251 252 252 252 251 253 254 253 252 250 247 249 251 252 254
255 256 256 255 256 257 257 257 258 259 260 260 259 259 258 257 256 254 252 251 246 249 246 246 248 250 249 249 248 249 250 250 247 251 251 250 251 246 246 247 250 252 254
252 253 254 255 254 255 256 256 257 258 259 258 257 257 256 256 254 253 253 253 251 250 248 246 245 247 250 250 249 247 248 255 253 252 246 248 249 245 246 247 250 252 253
253 254 254 255 255 257 258 258 258 258 257 257 257 256 256 255 255 255 254 252 250 248 249 246 246 248 248 249 249 251 254 257 255 254 251 249 249 249 249 249 250 253 255

GFSGL_sfc_thetae_084.txt.gz
Theta_e
288 288 287 286 285 285 283 282 281 280 279 278 277 276 276 275 276 275 276 276 276 275 275 275 274 274 273 272 273 272 271 270 268 270 272 273 273 274 275 275 276 276 276
288 287 286 285 285 283 281 281 280 279 278 278 276 276 276 276 276 276 276 276 275 274 274 273 273 274 272 271 271 270 270 271 270 268 271 272 272 274 274 274 275 276 276
287 286 285 284 283 282 281 280 279 278 278 277 276 275 275 276 276 276 276 275 275 274 273 273 272 272 271 272 271 270 271 272 271 270 270 272 273 274 273 273 274 274 275
286 285 283 283 283 281 280 279 279 278 277 276 276 276 276 275 275 276 275 274 274 273 274 273 272 272 271 271 271 271 272 271 271 271 271 272 272 273 272 271 271 272 272
284 283 283 283 282 281 280 279 278 277 277 276 275 275 275 276 276 275 275 274 273 273 273 273 273 273 274 274 273 273 272 270 271 272 271 271 270 270 270 272 270 271 272
283 282 283 282 280 279 279 278 277 277 276 276 275 275 275 276 280 280 276 274 274 273 272 272 272 273 273 276 277 278 278 272 267 265 270 269 269 270 272 271 270 269 267
282 282 281 281 279 279 278 277 277 276 276 275 275 275 274 275 281 281 279 275 274 273 272 272 272 273 273 272 274 276 277 277 278 275 267 270 270 272 272 270 270 269 268
282 281 281 280 279 278 277 277 276 275 275 275 274 275 274 274 282 282 280 275 274 273 272 272 272 272 272 272 272 272 273 273 274 273 273 272 274 275 272 272 270 268 268
281 280 280 280 279 277 277 276 275 275 275 274 275 274 274 274 282 283 280 274 274 273 272 272 272 272 274 276 274 270 271 271 275 277 277 278 277 276 274 271 265 264 263
281 281 280 280 279 278 277 276 276 276 275 275 275 274 274 274 280 283 281 275 272 272 272 273 275 272 275 277 274 269 266 269 271 267 268 269 270 269 272 270 268 264 264
282 281 280 280 279 279 277 276 276 275 276 275 275 273 273 273 273 282 282 275 273 271 271 271 272 276 277 278 279 270 270 273 268 262 263 264 266 267 268 269 269 267 264
282 280 280 280 279 278 277 276 276 276 275 275 274 272 272 272 274 278 282 281 277 269 269 271 271 276 278 278 278 279 280 276 258 257 258 262 264 265 267 267 268 268 268
280 279 280 280 278 278 277 276 275 276 276 274 273 272 271 270 270 277 278 280 281 275 272 272 275 277 278 277 277 278 271 260 258 256 260 262 264 266 266 266 266 267 267
278 279 279 279 278 278 278 277 276 275 276 275 273 273 273 269 268 267 269 272 277 277 277 275 277 277 276 274 267 271 266 264 262 261 262 264 264 263 262 264 263 263 262
278 278 279 279 279 278 277 277 276 278 279 276 276 276 273 268 269 271 269 266 266 268 260 257 259 260 263 265 263 264 264 265 263 264 262 261 261 262 262 262 262 261 259
276 277 279 279 278 277 276 276 281 281 281 283 282 278 273 276 276 277 276 276 275 276 265 259 261 264 266 266 264 265 264 264 263 263 261 261 261 260 260 260 261 260 258
276 277 279 278 277 276 274 273 271 278 280 281 282 280 277 274 277 278 278 278 278 277 271 269 269 268 267 265 265 264 263 262 263 262 261 260 260 260 259 258 259 259 257
269 270 272 275 274 275 274 273 273 273 273 273 279 280 279 278 277 278 278 278 272 276 268 268 265 264 263 263 262 262 259 258 258 259 259 260 259 258 257 256 257 257 256
268 269 270 270 270 271 271 272 272 273 271 271 262 274 278 279 279 278 279 274 272 268 263 261 261 261 259 256 254 253 252 252 254 253 253 255 257 257 255 256 257 257 256
261 265 265 264 262 262 263 264 263 265 267 265 268 271 266 270 271 273 269 261 262 262 259 261 259 257 250 249 248 248 248 249 250 249 250 253 257 257 255 254 255 255 254
262 260 263 261 263 264 264 264 265 265 266 265 266 267 269 271 270 266 260 259 260 260 260 259 257 251 247 246 245 246 247 251 249 248 250 254 252 248 252 254 253 252 251
258 257 257 260 258 260 262 260 261 262 262 261 256 257 274 263 258 260 261 260 260 260 259 257 255 253 253 249 248 246 248 249 247 247 250 251 248 248 249 249 248 250 249
256 256 255 254 256 256 257 258 258 260 259 259 259 261 261 262 260 261 261 259 258 257 256 254 254 253 253 251 247 249 250 250 250 248 249 248 246 247 245 246 247 244 246
254 254 254 253 253 254 254 254 254 256 255 255 255 257 258 258 257 259 258 257 256 256 255 254 254 254 253 251 244 245 247 248 245 248 247 247 247 245 243 242 245 247 249
252 253 254 254 253 254 254 253 254 252 252 255 254 255 257 258 258 257 257 256 256 255 255 254 253 252 252 251 249 246 245 253 250 249 246 244 246 243 242 242 245 246 248
251 252 251 252 253 253 254 256 256 257 257 258 258 258 258 257 257 257 256 256 255 255 254 254 253 252 250 250 250 251 253 256 253 252 249 247 247 246 246 246 246 248 249